GW7605 Weather Reports


Display with metric or nautical units.
time (UTC)temp
F
wind
direction
speed
MPH
gust
MPH
rain 1hr
in
rain 24hr
in
rain mn
in
humidity
%
barometer
mb
20260906024119 73 44 0.0 0.0 0.00 0.47 0.47 98 1012.7
20260906023615 73 21 0.0 1.0 0.00 0.47 0.47 98 1012.7
20260906023109 73 322 0.0 1.0 0.00 0.47 0.47 98 1012.7
20260906022604 73 328 0.0 0.0 0.00 0.47 0.47 98 1012.5
20260906022100 73 218 0.0 2.0 0.00 0.47 0.47 98 1012.3
20260906021556 73 142 0.0 0.0 0.00 0.47 0.47 98 1012.0
20260906021054 73 52 1.0 2.0 0.00 0.47 0.47 98 1011.9
20260906020554 73 63 1.0 2.0 0.00 0.47 0.47 98 1011.9
20260906020054 73 89 0.0 2.0 0.00 0.47 0.47 98 1012.2
20260906015554 74 37 0.0 2.0 0.00 0.47 0.47 98 1012.0
20260906015053 74 21 1.0 2.0 0.00 0.47 0.47 98 1012.2
20260906014548 74 242 0.0 0.0 0.00 0.47 0.47 98 1012.0
20260906014044 74 117 0.0 0.0 0.00 0.47 0.47 98 1012.3
20260906013539 74 62 0.0 2.0 0.00 0.47 0.47 98 1012.1
20260906013034 74 60 0.0 1.0 0.00 0.47 0.47 98 1012.1
20260906012530 74 355 0.0 1.0 0.00 0.47 0.47 97 1012.1
20260906012029 74 308 0.0 1.0 0.00 0.47 0.47 97 1012.0
20260906011525 74 7 1.0 1.0 0.00 0.47 0.47 97 1011.9
20260906011025 74 205 0.0 0.0 0.00 0.47 0.47 97 1011.7
20260906010520 74 205 0.0 0.0 0.00 0.47 0.47 97 1011.6
20260906010017 75 226 0.0 1.0 0.00 0.47 0.47 97 1011.6
20260906005516 75 180 0.0 1.0 0.00 0.47 0.47 97 1012.0
20260906005015 75 50 0.0 0.0 0.00 0.47 0.47 97 1011.6
20260906004514 75 44 0.0 1.0 0.00 0.47 0.47 97 1011.6
20260906004009 75 334 1.0 2.0 0.00 0.47 0.47 97 1011.7
20260906003504 75 25 0.0 2.0 0.00 0.47 0.47 97 1011.7
20260906003001 75 341 1.0 1.0 0.00 0.47 0.47 97 1011.6
20260906002501 75 37 0.0 2.0 0.00 0.47 0.47 96 1011.6
20260906001955 75 82 1.0 1.0 0.00 0.47 0.47 96 1011.5
20260906001452 76 343 0.0 2.0 0.00 0.47 0.47 96 1011.4
20260906000946 76 282 2.0 2.0 0.00 0.47 0.47 95 1011.4
20260906000442 76 352 1.0 2.0 0.00 0.47 0.47 95 1011.2
20260905235942 76 57 1.0 1.0 0.00 0.47 0.47 95 1011.0
20260905235442 76 50 0.0 0.0 0.00 0.47 0.47 94 1011.4
20260905234937 77 62 1.0 2.0 0.00 0.47 0.47 94 1011.1
20260905234433 77 113 0.0 0.0 0.00 0.47 0.47 93 1011.0
20260905233932 77 142 0.0 0.0 0.00 0.47 0.47 93 1011.0
20260905233428 77 299 0.0 0.0 0.00 0.47 0.47 91 1011.1
20260905232926 77 321 0.0 1.0 0.00 0.47 0.47 91 1011.1
20260905232423 78 269 1.0 2.0 0.00 0.47 0.47 90 1011.1
20260905231918 78 329 0.0 0.0 0.00 0.47 0.47 90 1011.1
20260905231414 78 304 0.0 1.0 0.00 0.47 0.47 89 1011.1
20260905230911 78 230 0.0 1.0 0.00 0.47 0.47 88 1011.1
20260905230408 78 284 0.0 0.0 0.00 0.47 0.47 89 1011.0
20260905225907 78 154 1.0 2.0 0.00 0.47 0.47 89 1011.0
20260905225403 78 150 0.0 0.0 0.00 0.47 0.47 89 1011.0
20260905224857 79 154 0.0 0.0 0.00 0.47 0.47 88 1011.0
20260905224354 79 89 0.0 0.0 0.00 0.47 0.47 86 1010.9
20260905223854 80 278 1.0 2.0 0.00 0.47 0.47 87 1010.7
20260905223352 80 217 0.0 0.0 0.00 0.47 0.47 86 1010.8
20260905222851 80 242 0.0 0.0 0.00 0.47 0.47 83 1010.8
20260905222350 80 269 0.0 1.0 0.00 0.47 0.47 80 1010.8
20260905221847 80 246 0.0 0.0 0.00 0.47 0.47 83 1010.9
20260905221343 80 166 0.0 0.0 0.00 0.47 0.47 82 1010.9
20260905220838 80 162 0.0 1.0 0.00 0.47 0.47 86 1011.0
20260905220335 80 142 0.0 1.0 0.00 0.47 0.47 83 1011.1
20260905215834 80 230 0.0 1.0 0.00 0.47 0.47 81 1011.2
20260905215330 81 252 0.0 1.0 0.00 0.47 0.47 81 1011.1
20260905214826 81 175 0.0 0.0 0.00 0.47 0.47 80 1011.1
20260905214321 81 288 0.0 1.0 0.00 0.47 0.47 81 1011.5
20260905213816 81 172 0.0 2.0 0.00 0.47 0.47 82 1011.4
20260905213312 81 209 0.0 1.0 0.00 0.47 0.47 82 1011.4
20260905212812 81 275 1.0 2.0 0.00 0.47 0.47 82 1011.9
20260905212313 82 318 2.0 2.0 0.00 0.47 0.47 83 1011.7
20260905211813 81 297 0.0 1.0 0.00 0.47 0.47 81 1011.6
20260905211308 81 310 0.0 1.0 0.00 0.47 0.47 86 1012.1
20260905210804 80 238 0.0 0.0 0.00 0.47 0.47 86 1012.1
20260905210304 80 176 0.0 0.0 0.00 0.47 0.47 84 1011.9
20260905205803 81 217 0.0 0.0 0.00 0.47 0.47 81 1011.7
20260905205257 82 217 0.0 1.0 0.00 0.47 0.47 84 1011.9
20260905204757 81 310 0.0 1.0 0.00 0.47 0.47 78 1012.3
20260905204253 82 279 1.0 2.0 0.00 0.47 0.47 81 1012.3
20260905203752 81 211 0.0 2.0 0.00 0.47 0.47 84 1012.1
20260905203248 81 286 1.0 1.0 0.00 0.47 0.47 84 1012.2
20260905202743 80 179 0.0 4.0 0.00 0.47 0.47 80 1012.5
20260905202238 80 212 2.0 2.0 0.00 0.47 0.47 81 1012.0
20260905201733 80 244 1.0 3.0 0.00 0.47 0.47 83 1012.1
20260905201229 81 285 2.0 2.0 0.00 0.47 0.47 83 1012.5
20260905200723 80 249 1.0 2.0 0.00 0.47 0.47 82 1012.5
20260905200219 79 347 2.0 2.0 0.00 0.47 0.47 86 1012.4
20260905195717 77 20 2.0 3.0 0.00 0.47 0.47 88 1012.6
20260905195212 76 57 2.0 3.0 0.00 0.47 0.47 91 1012.5
20260905194707 75 325 2.0 2.0 0.00 0.47 0.47 95 1012.1
20260905194207 75 295 0.0 2.0 0.00 0.47 0.47 96 1012.2
20260905193701 75 317 3.0 3.0 0.00 0.47 0.47 98 1011.7
20260905193157 73 291 3.0 3.0 0.00 0.47 0.47 97 1012.3
20260905192652 73 323 2.0 2.0 0.00 0.47 0.47 98 1012.7
20260905192149 71 253 1.0 3.0 0.00 0.47 0.47 97 1012.6
20260905191648 71 317 2.0 2.0 0.00 0.47 0.47 97 1012.6
20260905191146 71 300 2.0 2.0 0.02 0.47 0.47 96 1012.6
20260905190644 71 323 1.0 2.0 0.02 0.47 0.47 96 1012.7
20260905190144 71 230 0.0 2.0 0.02 0.47 0.47 96 1012.6
20260905185643 71 274 1.0 2.0 0.12 0.47 0.47 95 1013.3
20260905185138 71 282 0.0 1.0 0.52 0.46 0.46 95 1014.0
20260905184637 71 329 1.0 7.0 0.69 0.45 0.45 92 1014.7
20260905184136 72 295 4.0 12.0 1.09 0.37 0.37 92 1015.5
20260905183636 73 22 9.0 15.0 1.37 0.33 0.33 91 1015.2
20260905183131 75 38 9.0 11.0 0.78 0.17 0.17 87 1014.4
20260905182631 79 325 6.0 13.0 0.45 0.09 0.09 80 1013.8
20260905182131 82 0 2.0 4.0 0.19 0.04 0.04 84 1013.3
20260905181626 85 356 2.0 4.0 0.09 0.02 0.02 79 1012.6
20260905181125 88 273 1.0 1.0 0.02 0.00 0.00 74 1012.2
20260905180620 90 286 0.0 2.0 0.00 0.00 0.00 68 1012.5
20260905180115 91 347 0.0 1.0 0.00 0.00 0.00 65 1012.7
20260905175614 92 344 1.0 2.0 0.00 0.00 0.00 59 1012.9
20260905175109 93 185 0.0 2.0 0.00 0.00 0.00 59 1012.8
20260905174605 94 316 2.0 2.0 0.00 0.00 0.00 53 1012.6
20260905174101 94 237 1.0 2.0 0.00 0.00 0.00 58 1012.8
20260905173557 95 282 4.0 4.0 0.00 0.00 0.00 53 1013.1
20260905173052 95 341 2.0 3.0 0.00 0.00 0.00 53 1013.1
20260905172550 95 105 0.0 3.0 0.00 0.00 0.00 51 1012.9
20260905172046 96 129 0.0 2.0 0.00 0.00 0.00 53 1013.3
20260905171542 95 242 2.0 3.0 0.00 0.00 0.00 55 1013.1
20260905171038 95 3 2.0 4.0 0.00 0.00 0.00 53 1013.4
20260905170535 96 345 1.0 5.0 0.00 0.00 0.00 52 1013.2
20260905170030 95 325 0.0 5.0 0.00 0.00 0.00 58 1013.4
20260905165525 95 180 0.0 4.0 0.00 0.00 0.00 54 1013.3
20260905165020 95 51 0.0 2.0 0.00 0.00 0.00 54 1013.4
20260905164520 96 242 2.0 3.0 0.00 0.00 0.00 54 1013.5
20260905164015 96 359 2.0 3.0 0.00 0.00 0.00 55 1013.5
20260905163511 95 331 2.0 3.0 0.00 0.00 0.00 57 1013.6
20260905163006 94 309 0.0 3.0 0.00 0.00 0.00 57 1013.8
20260905162502 95 190 0.0 2.0 0.00 0.00 0.00 57 1013.7
20260905161957 94 304 1.0 2.0 0.00 0.00 0.00 58 1013.7
20260905161456 94 251 1.0 4.0 0.00 0.00 0.00 59 1013.7
20260905160954 95 231 0.0 2.0 0.00 0.00 0.00 56 1014.0
20260905160448 95 89 0.0 2.0 0.00 0.00 0.00 56 1013.8
20260905155947 94 246 2.0 2.0 0.00 0.00 0.00 59 1013.7
20260905155443 92 287 0.0 2.0 0.00 0.00 0.00 60 1013.8
20260905154941 95 151 3.0 3.0 0.00 0.00 0.00 56 1014.0
20260905154436 94 252 0.0 2.0 0.00 0.00 0.00 57 1013.8
20260905153932 94 26 0.0 2.0 0.00 0.00 0.00 59 1013.7
20260905153428 94 103 0.0 2.0 0.00 0.00 0.00 57 1013.9
20260905152927 94 0 2.0 2.0 0.00 0.00 0.00 57 1013.8
20260905152427 94 315 0.0 2.0 0.00 0.00 0.00 59 1013.8
20260905151922 94 253 2.0 2.0 0.00 0.00 0.00 60 1013.6
20260905151418 93 263 1.0 2.0 0.00 0.00 0.00 60 1014.0
20260905150918 93 309 0.0 2.0 0.00 0.00 0.00 62 1013.9
20260905150413 93 62 0.0 3.0 0.00 0.00 0.00 59 1013.7
20260905145909 92 300 0.0 3.0 0.00 0.00 0.00 62 1013.7
20260905145404 92 176 2.0 2.0 0.00 0.00 0.00 59 1014.0
20260905144903 92 287 2.0 2.0 0.00 0.00 0.00 62 1013.8
20260905144359 91 19 0.0 2.0 0.00 0.00 0.00 63 1013.8
20260905143858 91 251 1.0 1.0 0.00 0.00 0.00 65 1013.9
20260905143352 91 5 2.0 4.0 0.00 0.00 0.00 62 1013.9
20260905142851 90 306 0.0 1.0 0.00 0.00 0.00 66 1013.8
20260905142350 90 339 2.0 3.0 0.00 0.00 0.00 63 1013.9
20260905141846 89 69 1.0 2.0 0.00 0.00 0.00 66 1013.8
20260905141341 89 317 1.0 2.0 0.00 0.00 0.00 69 1013.8
20260905140838 89 269 0.0 1.0 0.00 0.00 0.00 68 1013.9
20260905140337 89 276 0.0 2.0 0.00 0.00 0.00 68 1013.6
20260905135836 88 122 0.0 0.0 0.00 0.00 0.00 69 1013.7
20260905135333 88 320 0.0 1.0 0.00 0.00 0.00 71 1013.8
20260905134828 87 139 0.0 0.0 0.00 0.00 0.00 71 1013.8
20260905134326 86 140 0.0 2.0 0.00 0.00 0.00 72 1013.9
20260905133826 84 217 0.0 1.0 0.00 0.00 0.00 76 1014.0
20260905133321 84 309 0.0 2.0 0.00 0.00 0.00 77 1014.1
20260905132821 84 6 1.0 2.0 0.00 0.00 0.00 77 1014.2
20260905132317 82 89 0.0 3.0 0.00 0.00 0.00 81 1014.3
20260905131816 81 8 1.0 2.0 0.00 0.00 0.00 82 1014.3
20260905131312 80 37 1.0 2.0 0.00 0.00 0.00 84 1014.2
20260905130808 79 12 2.0 3.0 0.00 0.00 0.00 85 1014.1
20260905130306 79 347 2.0 2.0 0.00 0.00 0.00 85 1014.2
20260905125802 78 347 1.0 2.0 0.00 0.00 0.00 85 1014.4
20260905125256 77 57 1.0 2.0 0.00 0.00 0.00 91 1014.2
20260905124753 76 37 0.0 0.0 0.00 0.00 0.00 93 1014.3
20260905124248 75 7 0.0 1.0 0.00 0.00 0.00 94 1014.2
20260905123743 75 40 0.0 1.0 0.00 0.00 0.00 95 1014.1
20260905123240 75 18 0.0 2.0 0.00 0.00 0.00 96 1014.2
20260905122735 74 31 0.0 1.0 0.00 0.00 0.00 96 1013.9
20260905122234 74 48 1.0 1.0 0.00 0.00 0.00 97 1014.0
20260905121729 73 45 0.0 1.0 0.00 0.00 0.00 98 1014.0
20260905121226 73 37 0.0 0.0 0.00 0.00 0.00 98 1013.9
20260905120724 73 44 1.0 2.0 0.00 0.00 0.00 98 1013.8
20260905120219 73 38 0.0 1.0 0.00 0.00 0.00 98 1014.0
20260905115720 73 214 0.0 2.0 0.00 0.00 0.00 98 1013.9
20260905115219 72 31 0.0 2.0 0.00 0.00 0.00 98 1013.8
20260905114714 72 135 0.0 2.0 0.00 0.00 0.00 98 1013.9
20260905114212 72 56 1.0 2.0 0.00 0.00 0.00 98 1013.8
20260905113713 72 23 0.0 2.0 0.00 0.00 0.00 98 1013.5
20260905113208 72 123 0.0 2.0 0.00 0.00 0.00 98 1013.3
20260905112708 72 44 0.0 2.0 0.00 0.00 0.00 98 1013.5
20260905112204 72 82 0.0 1.0 0.00 0.00 0.00 98 1013.3
20260905111703 72 84 0.0 2.0 0.00 0.00 0.00 98 1013.2
20260905111203 72 119 0.0 2.0 0.00 0.00 0.00 98 1013.3
20260905110702 72 94 0.0 1.0 0.00 0.00 0.00 98 1013.2
20260905110157 72 164 0.0 2.0 0.00 0.00 0.00 98 1013.2
20260905105652 72 131 2.0 2.0 0.00 0.00 0.00 98 1013.1
20260905105151 72 210 0.0 2.0 0.00 0.00 0.00 98 1012.9
20260905104646 72 63 0.0 2.0 0.00 0.00 0.00 98 1012.9
20260905104142 72 80 1.0 1.0 0.00 0.00 0.00 98 1012.8
20260905103637 72 50 0.0 0.0 0.00 0.00 0.00 98 1012.7
20260905103133 72 147 0.0 0.0 0.00 0.00 0.00 98 1012.8
20260905102629 72 55 1.0 1.0 0.00 0.00 0.00 98 1012.7
20260905102125 72 38 0.0 0.0 0.00 0.00 0.00 98 1012.5
20260905101623 73 117 0.0 0.0 0.00 0.00 0.00 98 1012.7
20260905101122 73 46 0.0 1.0 0.00 0.00 0.00 98 1013.0
20260905100618 73 117 0.0 0.0 0.00 0.00 0.00 98 1012.6
20260905100113 73 117 0.0 0.0 0.00 0.00 0.00 98 1012.8
20260905095607 73 124 0.0 0.0 0.00 0.00 0.00 98 1012.6
20260905095102 73 147 0.0 0.0 0.00 0.00 0.00 98 1012.5
20260905094557 73 147 0.0 0.0 0.00 0.00 0.00 98 1012.7
20260905094057 72 62 0.0 0.0 0.00 0.00 0.00 98 1012.6
20260905093556 73 44 1.0 2.0 0.00 0.00 0.00 98 1012.6
20260905093053 73 44 1.0 2.0 0.00 0.00 0.00 98 1012.6
20260905092552 73 72 1.0 2.0 0.00 0.00 0.00 98 1012.5
20260905092049 73 31 0.0 1.0 0.00 0.00 0.00 98 1012.6
20260905091547 73 142 0.0 2.0 0.00 0.00 0.00 98 1012.7
20260905091043 73 5 0.0 2.0 0.00 0.00 0.00 98 1012.6
20260905090542 73 22 0.0 2.0 0.00 0.00 0.00 98 1012.9
20260905090038 73 61 0.0 1.0 0.00 0.00 0.00 98 1012.9
20260905085536 73 80 0.0 1.0 0.00 0.00 0.00 97 1012.8
20260905085032 73 55 0.0 0.0 0.00 0.00 0.00 97 1012.8
20260905084532 73 38 0.0 1.0 0.00 0.00 0.00 97 1013.0
20260905084027 73 64 1.0 1.0 0.00 0.00 0.00 97 1012.9
20260905083521 73 53 1.0 2.0 0.00 0.00 0.00 97 1013.1
20260905083018 73 354 1.0 1.0 0.00 0.00 0.00 97 1013.2
20260905082513 73 32 0.0 1.0 0.00 0.00 0.00 97 1013.1
20260905082009 74 333 0.0 0.0 0.00 0.00 0.00 97 1013.3
20260905081508 74 37 0.0 0.0 0.00 0.00 0.00 97 1013.3
20260905081003 74 45 0.0 1.0 0.00 0.00 0.00 97 1013.3
20260905080458 74 89 0.0 0.0 0.00 0.00 0.00 97 1013.5
20260905075956 74 63 0.0 2.0 0.00 0.00 0.00 97 1013.5
20260905075451 74 29 0.0 2.0 0.00 0.00 0.00 97 1013.3
20260905074949 74 22 0.0 2.0 0.00 0.00 0.00 97 1013.6
20260905074446 74 14 2.0 3.0 0.00 0.00 0.00 97 1013.4
20260905073941 74 344 1.0 2.0 0.00 0.00 0.00 97 1013.5
20260905073436 74 350 0.0 1.0 0.00 0.00 0.00 97 1013.6
20260905072931 74 25 1.0 2.0 0.00 0.00 0.00 97 1013.7
20260905072426 74 25 0.0 1.0 0.00 0.00 0.00 96 1013.6
20260905071922 74 14 1.0 2.0 0.00 0.00 0.00 97 1013.7
20260905071419 73 84 1.0 2.0 0.00 0.00 0.00 97 1013.6
20260905070918 73 3 1.0 2.0 0.00 0.00 0.00 96 1013.6
20260905070415 74 358 2.0 2.0 0.00 0.00 0.00 96 1013.6
20260905065914 74 9 1.0 2.0 0.00 0.00 0.00 97 1013.7
20260905065413 73 45 0.0 2.0 0.00 0.00 0.00 96 1013.6
20260905064908 73 40 0.0 2.0 0.00 0.00 0.00 96 1013.8
20260905064409 74 356 1.0 1.0 0.00 0.00 0.00 96 1014.1
20260905063908 74 51 0.0 0.0 0.00 0.00 0.00 96 1014.0
20260905063403 74 37 1.0 1.0 0.00 0.00 0.00 96 1014.0
20260905062900 74 25 0.0 0.0 0.00 0.00 0.00 96 1013.9
20260905062354 74 326 0.0 0.0 0.00 0.00 0.00 96 1014.1
20260905061849 74 62 0.0 1.0 0.00 0.00 0.00 96 1013.9
20260905061348 74 26 0.0 2.0 0.00 0.00 0.00 96 1014.0
20260905060843 74 18 0.0 1.0 0.00 0.00 0.00 96 1014.1
20260905060340 74 77 0.0 1.0 0.00 0.00 0.00 96 1014.5
20260905055839 74 22 1.0 1.0 0.00 0.00 0.00 96 1014.2
20260905055334 74 63 2.0 2.0 0.00 0.00 0.00 96 1014.3
20260905054833 74 69 0.0 2.0 0.00 0.00 0.00 96 1014.4
20260905054330 74 37 0.0 0.0 0.00 0.00 0.00 95 1014.4
20260905053829 74 33 0.0 2.0 0.00 0.00 0.00 95 1014.4
20260905053324 75 325 0.0 2.0 0.00 0.00 0.00 95 1014.2
20260905052825 75 38 0.0 2.0 0.00 0.00 0.00 95 1014.1
20260905052325 75 44 0.0 1.0 0.00 0.00 0.00 95 1014.5
20260905051824 75 8 0.0 1.0 0.00 0.00 0.00 95 1014.4
20260905051320 75 322 0.0 1.0 0.00 0.00 0.00 95 1014.6
20260905050817 75 280 0.0 1.0 0.00 0.00 0.00 95 1014.7
20260905050313 75 343 0.0 1.0 0.00 0.00 0.00 95 1014.6
20260905045808 75 357 2.0 2.0 0.00 0.00 0.00 94 1014.3
20260905045305 76 28 0.0 2.0 0.00 0.00 0.00 93 1014.4
20260905044759 76 31 1.0 1.0 0.00 0.00 0.00 93 1014.7
20260905044254 76 124 0.0 1.0 0.00 0.00 0.00 93 1014.2
20260905043752 76 142 0.0 0.0 0.00 0.00 0.00 93 1014.5
20260905043247 76 104 0.0 1.0 0.00 0.00 0.00 93 1014.5
20260905042742 76 144 2.0 2.0 0.00 0.00 0.00 93 1014.6
20260905042241 76 89 0.0 0.0 0.00 0.00 0.00 93 1014.2
20260905041737 76 69 2.0 2.0 0.00 0.00 0.00 93 1014.2
20260905041232 76 42 1.0 2.0 0.00 0.00 0.00 92 1014.2
20260905040727 77 205 0.0 0.0 0.00 0.00 0.00 92 1014.1
20260905040226 77 333 0.0 1.0 0.00 0.00 0.00 92 1014.3
20260905035726 77 224 0.0 0.0 0.00 0.00 0.00 92 1014.3
20260905035222 77 230 0.0 0.0 0.00 0.00 0.00 91 1014.2
20260905034719 77 124 0.0 0.0 0.00 0.00 0.00 92 1014.5
20260905034218 77 129 0.0 0.0 0.00 0.00 0.00 92 1014.1
20260905033717 77 37 0.0 0.0 0.00 0.00 0.00 92 1014.3
20260905033213 77 129 0.0 0.0 0.00 0.00 0.00 92 1014.2
20260905032712 77 129 0.0 0.0 0.00 0.00 0.00 92 1014.4
20260905032207 78 139 0.0 1.0 0.00 0.00 0.00 92 1014.3
20260905031703 78 164 0.0 1.0 0.00 0.00 0.00 91 1014.6
20260905031158 78 170 0.0 1.0 0.00 0.00 0.00 91 1014.4
20260905030653 78 195 0.0 1.0 0.00 0.00 0.00 91 1014.3
20260905030149 78 217 0.0 0.0 0.00 0.00 0.00 90 1014.7
20260905025643 78 21 0.0 0.0 0.00 0.00 0.00 91 1014.7
20260905025139 78 62 0.0 1.0 0.00 0.00 0.00 91 1014.8
20260905024635 78 18 1.0 1.0 0.00 0.00 0.00 92 1014.8